FW0523 Weather Reports


Display with metric or nautical units.
time (UTC)temp
F
wind
direction
speed
MPH
gust
MPH
rain 1hr
in
rain 24hr
in
rain mn
in
humidity
%
barometer
mb
20260901210104 73 7 3.0 10.0 0.00 0.00 0.00 33 1027.5
20260901205103 74 359 4.0 11.0 0.00 0.00 0.00 31 1027.6
20260901204104 74 333 4.0 7.0 0.00 0.00 0.00 32 1027.7
20260901203102 74 332 2.0 6.0 0.00 0.00 0.00 33 1027.6
20260901202102 73 322 7.0 13.0 0.00 0.00 0.00 33 1027.7
20260901201103 74 16 4.0 7.0 0.00 0.00 0.00 34 1028.0
20260901200103 73 360 4.0 8.0 0.00 0.00 0.00 33 1028.0
20260901195103 72 299 4.0 6.0 0.00 0.00 0.00 33 1028.1
20260901194104 72 308 3.0 6.0 0.00 0.00 0.00 32 1028.0
20260901193102 72 65 3.0 6.0 0.00 0.00 0.00 32 1028.0
20260901192103 73 340 7.0 12.0 0.00 0.00 0.00 31 1028.1
20260901191103 72 343 4.0 9.0 0.00 0.00 0.00 34 1028.3
20260901190104 71 25 2.0 7.0 0.00 0.00 0.00 34 1028.4
20260901185104 71 30 3.0 8.0 0.00 0.00 0.00 35 1028.4
20260901184104 71 333 4.0 8.0 0.00 0.00 0.00 35 1028.4
20260901183103 71 199 7.0 13.0 0.00 0.00 0.00 35 1028.7
20260901181004 69 360 3.0 10.0 0.00 0.00 0.00 37 1028.7
20260901180003 69 325 3.0 7.0 0.00 0.00 0.00 38 1028.8
20260901175003 70 344 4.0 7.0 0.00 0.00 0.00 37 1028.8
20260901174005 69 326 4.0 9.0 0.00 0.00 0.00 38 1028.8
20260901173002 68 17 4.0 10.0 0.00 0.00 0.00 43 1028.9
20260901172003 68 52 4.0 12.0 0.00 0.00 0.00 42 1028.9
20260901171004 67 7 6.0 8.0 0.00 0.00 0.00 42 1028.9
20260901170003 67 326 5.0 10.0 0.00 0.00 0.00 44 1028.8
20260901165003 66 11 6.0 9.0 0.00 0.00 0.00 47 1028.7
20260901164003 66 356 5.0 8.0 0.00 0.00 0.00 47 1028.7
20260901163002 65 360 5.0 9.0 0.00 0.00 0.00 50 1028.8
20260901162003 64 7 5.0 10.0 0.00 0.00 0.00 51 1028.8
20260901161004 63 353 5.0 9.0 0.00 0.00 0.00 53 1028.8
20260901153804 63 360 0.0 5.0 0.00 0.00 0.00 54 1028.8
20260901152802 61 131 0.0 0.0 0.00 0.00 0.00 59 1028.9
20260901150703 58 219 1.0 6.0 0.00 0.00 0.00 70 1029.1
20260901145703 56 120 4.0 9.0 0.00 0.00 0.00 73 1029.2
20260901144704 54 176 0.0 6.0 0.00 0.00 0.00 77 1029.3
20260901143702 52 222 0.0 2.0 0.00 0.00 0.00 79 1029.5
20260901142703 51 212 1.0 8.0 0.00 0.00 0.00 80 1029.6
20260901141704 51 213 1.0 9.0 0.00 0.00 0.00 80 1029.9
20260901140702 51 58 0.0 1.0 0.00 0.00 0.00 80 1029.9
20260901135703 51 112 0.0 1.0 0.00 0.00 0.00 80 1029.9
20260901134704 51 360 2.0 5.0 0.00 0.00 0.00 80 1029.9
20260901132604 51 213 0.0 5.0 0.00 0.00 0.00 80 1029.6
20260901131602 51 171 3.0 5.0 0.00 0.00 0.00 80 1029.5
20260901130603 51 123 1.0 8.0 0.00 0.00 0.00 80 1029.3
20260901125603 51 171 0.0 0.0 0.00 0.00 0.00 80 1029.1
20260901124602 51 171 0.0 0.0 0.00 0.00 0.00 80 1028.9
20260901123603 52 171 0.0 0.0 0.00 0.00 0.00 80 1028.8
20260901121503 52 198 1.0 1.0 0.00 0.00 0.00 80 1028.8
20260901120504 52 169 0.0 2.0 0.00 0.00 0.00 80 1028.8
20260901115502 53 172 0.0 6.0 0.00 0.00 0.00 80 1028.8
20260901114503 53 195 2.0 0.0 0.00 0.00 0.00 80 1028.8
20260901113504 53 32 0.0 0.0 0.00 0.00 0.00 80 1028.8
20260901112502 53 32 0.0 0.0 0.00 0.00 0.00 80 1028.8
20260901111503 54 32 0.0 4.0 0.00 0.00 0.00 80 1028.7
20260901104303 54 88 0.0 0.0 0.00 0.00 0.00 79 1028.4
20260901103304 54 88 0.0 0.0 0.00 0.00 0.00 79 1028.3
20260901102306 54 88 0.0 0.0 0.00 0.00 0.00 79 1028.0
20260901101303 54 88 0.0 0.0 0.00 0.00 0.00 79 1027.9
20260901100304 54 88 0.0 0.0 0.00 0.00 0.00 79 1028.0
20260901095306 54 88 0.0 0.0 0.00 0.00 0.00 79 1028.0
20260901094302 54 88 2.0 0.0 0.00 0.00 0.00 79 1028.0
20260901093304 54 97 0.0 0.0 0.00 0.00 0.00 79 1028.1
20260901092305 54 97 0.0 0.0 0.00 0.00 0.00 79 1028.3
20260901091303 54 69 0.0 0.0 0.00 0.00 0.00 79 1028.1
20260901090303 54 69 0.0 0.0 0.00 0.00 0.00 79 1028.1
20260901085306 54 69 0.0 0.0 0.00 0.00 0.00 79 1028.3
20260901084302 54 316 2.0 4.0 0.00 0.00 0.00 79 1028.4
20260901083303 54 359 1.0 7.0 0.00 0.00 0.00 79 1028.4
20260901082306 54 28 1.0 10.0 0.00 0.00 0.00 79 1028.5
20260901081302 54 195 0.0 3.0 0.00 0.00 0.00 78 1028.5
20260901080303 54 11 2.0 8.0 0.00 0.00 0.00 78 1028.5
20260901075307 54 360 0.0 7.0 0.00 0.00 0.00 78 1028.5
20260901074304 54 114 0.0 0.0 0.00 0.00 0.00 79 1028.5
20260901073302 54 114 0.0 0.0 0.00 0.00 0.00 79 1028.7
20260901070103 54 58 0.0 0.0 0.00 0.00 0.00 80 1029.1
20260901064003 54 58 0.0 0.0 0.00 0.00 0.00 80 1029.5
20260901063004 54 58 0.0 0.0 0.00 0.00 0.00 80 1029.3
20260901062002 54 58 0.0 0.0 0.00 0.00 8.47 79 1029.3
20260901061003 54 58 0.0 0.0 0.00 0.00 8.47 79 1029.3
20260901060004 54 58 0.0 0.0 0.00 0.00 8.47 80 1029.2
20260901055004 54 58 0.0 0.0 0.00 0.00 8.47 79 1029.5
20260901054002 54 58 0.0 4.0 0.00 0.00 8.47 79 1029.3
20260901053003 54 123 0.0 0.0 0.00 0.00 8.47 79 1029.1
20260901052004 54 123 1.0 3.0 0.00 0.00 8.47 79 1029.3
20260901051002 54 219 0.0 7.0 0.00 0.00 8.47 79 1029.2
20260901050003 55 100 1.0 3.0 0.00 0.00 8.47 79 1029.3
20260901045004 54 360 0.0 0.0 0.00 0.00 8.47 79 1029.3
20260901044002 55 360 0.0 3.0 0.00 0.00 8.47 79 1029.3
20260901043007 55 195 2.0 2.0 0.00 0.00 8.47 79 1029.6
20260901042004 55 167 0.0 3.0 0.00 0.00 8.47 79 1029.5
20260901041002 55 311 0.0 0.0 0.00 0.00 8.47 79 1029.2
20260901040003 55 7 0.0 0.0 0.00 0.00 8.47 79 1029.1
20260901035004 56 7 0.0 0.0 0.00 0.00 8.47 79 1028.9
20260901034004 56 7 0.0 4.0 0.00 0.00 8.47 79 1028.7
20260901033005 55 8 2.0 0.0 0.00 0.00 8.47 79 1028.4
20260901032003 56 38 3.0 0.0 0.00 0.00 8.47 78 1028.0
20260901031004 56 157 0.0 10.0 0.00 0.00 8.47 78 1028.1
20260901030002 56 10 2.0 0.0 0.00 0.00 8.47 77 1028.1
20260901025003 57 360 3.0 9.0 0.00 0.00 8.47 76 1028.1
20260901024004 57 360 0.0 0.0 0.00 0.00 8.47 76 1028.1
20260901023003 57 360 0.0 3.0 0.00 0.00 8.47 75 1028.1
20260901022003 58 152 0.0 9.0 0.00 0.00 8.47 75 1028.3
20260901021003 58 161 0.0 8.0 0.00 0.00 8.47 75 1028.3
20260901020002 58 360 0.0 2.0 0.00 0.00 8.47 74 1028.3
20260901015003 58 360 0.0 3.0 0.00 0.00 8.47 74 1028.4
20260901014004 59 93 0.0 2.0 0.00 0.00 8.47 74 1028.4
20260901013004 59 360 1.0 3.0 0.00 0.00 8.47 74 1028.1
20260901012003 59 313 2.0 8.0 0.00 0.00 8.47 75 1028.0
20260901011004 60 360 5.0 9.0 0.00 0.00 8.47 73 1028.1
20260901010004 60 18 0.0 9.0 0.00 0.00 8.47 63 1028.0
20260901005002 60 360 1.0 12.0 0.00 0.00 8.47 61 1027.9
20260901004003 60 30 6.0 10.0 0.00 0.00 8.47 61 1028.1
20260901003004 59 164 3.0 10.0 0.00 0.00 8.47 65 1028.1
20260901000902 58 311 3.0 10.0 0.00 0.00 8.47 70 1028.3
20260831235903 58 360 3.0 10.0 0.00 0.00 8.47 73 1028.3
20260831232703 58 360 2.0 11.0 0.00 0.00 8.47 75 1029.1
20260831231703 58 145 3.0 10.0 0.00 0.00 8.47 76 1029.3
20260831230704 58 360 2.0 8.0 0.00 0.00 8.47 79 1029.2
20260831224602 58 48 4.0 9.0 0.00 0.00 8.46 81 1029.2
20260831223603 58 7 1.0 9.0 0.00 0.00 8.46 80 1029.3
20260831222604 58 35 7.0 15.0 0.00 0.00 8.46 80 1029.1
20260831221602 58 360 3.0 8.0 0.00 0.00 8.46 81 1029.2
20260831215502 59 352 4.0 8.0 0.00 0.00 8.46 80 1029.3
20260831214503 59 6 5.0 8.0 0.00 0.00 7.77 80 1029.6
20260831212403 59 28 5.0 7.0 0.00 0.00 7.11 78 1030.1
20260831211404 59 14 4.0 5.0 0.00 0.00 7.10 77 1030.1